Location: Springfield
(37.2150°N, 93.2980°W)
Time: 06:16:21
(UTC-06:00)

Daily predictions for brighter satellites

Satellite Brightness Start Highest point End
(mag) Time Altitude Azimuth Time Altitude Azimuth Time Altitude Azimuth
NOAA 12 4.2 18:19:30 10° SSE 18:24:42 59° ENE 18:29:56 10° N
Cosmos 1464 Rocket 4.3 18:22:20 10° N 18:28:07 42° ENE 18:33:52 10° SSE
Meteor 1-25 Rocket 4.3 18:23:36 10° S 18:28:57 54° E 18:34:23 10° NNE
Okean 3 3.6 18:28:20 10° N 18:32:25 51° E 18:36:29 10° SSE
EO 1 Del DPAF 3.4 18:29:16 10° NNE 18:33:01 51° E 18:36:43 10° S
Cosmos 1437 Rocket 3.8 18:31:35 10° SSE 18:34:59 27° E 18:38:27 10° NE
Landsat 4 3.6 18:34:24 10° NNE 18:38:10 79° ESE 18:41:55 10° S
Cosmos 1269 Rocket 4.4 18:33:59 10° S 18:38:56 43° ESE 18:43:55 10° NNE
GPS 2-05 Rocket1 4.5 18:37:24 10° SSW 18:39:44 19° SSE 18:41:58 10° ESE
USA 32 4.4 18:36:10 10° SSE 18:41:00 40° E 18:45:51 10° NNE
Cosmos 1674 Rocket 3.5 18:37:19 10° N 18:41:40 86° E 18:45:58 10° S
Lacrosse 5 3.9 18:38:30 10° WNW 18:42:55 31° WSW 18:47:19 10° S
CENTAUR R/B 2.6 18:37:55 10° SW 18:43:47 82° WNW 18:50:33 10° NNE
Cosmos 921 Rocket 3.7 18:40:20 10° N 18:44:27 33° ENE 18:48:29 10° SE
Gbstr 26 Del rocket 2.9 18:44:47 10° SSW 18:48:23 47° SE 18:51:32 13° ENE
Cosmos 1908 Rocket 3.5 18:44:34 10° S 18:49:01 74° E 18:53:29 10° N
YAOGAN 1 4.3 18:46:46 10° SSW 18:50:48 38° W 18:54:50 10° NNW
Cosmos 1633 3.1 18:55:35 10° SSW 18:59:06 60° W 19:02:39 10° N
FengYun 1-2 T 4.2 18:54:33 10° SSE 19:00:00 66° ENE 19:05:26 10° N
Cosmos 2034 Rocket 4.0 18:58:43 10° N 19:05:04 63° E 19:11:19 10° SSE
Cosmos 1891 Rocket 4.4 18:58:56 10° N 19:05:08 75° E 19:11:11 10° SSE
COSMOS 2455 3.4 19:01:08 10° S 19:06:27 34° ESE 19:11:40 11° NE
Iridium 4 Rocket 3.0 19:02:25 10° N 19:07:10 78° E 19:11:30 10° S
OAO 2 Rocket 3.3 19:06:41 10° WSW 19:11:37 68° S 19:14:27 25° E
FREGAT/IRIS 2.4 19:11:46 10° SSE 19:14:42 88° WSW 19:17:41 10° NNW
Tiangong 2 3.1 19:13:59 10° W 19:16:39 24° SW 19:18:57 12° SSE
ERS-2 2.0 19:13:09 10° SSE 19:16:50 89° E 19:20:32 10° NNW
BREEZE-M DEB (TANK) 3.0 19:14:44 10° NNW 19:16:52 25° NE 19:17:02 25° NE
Cosmos 1975 Rocket 3.1 19:13:38 10° N 19:18:02 60° E 19:22:26 10° SSE
SL-16 R/B 2.7 19:12:30 10° NNW 19:18:05 61° WSW 19:23:37 10° S
H-2A R/B 3.5 19:14:41 10° S 19:18:32 56° W 19:22:22 10° NNW
SJ-6B 2.6 19:19:29 10° SSE 19:23:12 62° ENE 19:27:00 10° N
Cosmos 2251 Rocket 4.1 19:20:53 10° SSE 19:25:27 31° E 19:25:57 31° E
Resurs 01 Rocket 2.6 19:29:27 29° NE 19:29:27 29° NE 19:32:34 10° N
Cosmos 44 Rocket 4.3 19:24:03 10° NW 19:28:57 50° WSW 19:33:53 10° S
ATLAS CENTAUR R/B 3.4 19:28:52 10° N 19:30:20 15° NNE 19:30:20 15° NNE
Cosmos 1603 3.6 19:31:21 10° NNW 19:36:56 61° ENE 19:39:46 29° SE
Meteor 1-13 Rocket 4.0 19:34:39 10° N 19:40:09 67° E 19:45:38 10° SSE
CZ-2D R/B 3.1 19:37:26 16° SSE 19:40:29 88° ENE 19:44:23 10° N
Okean 1 4.5 19:37:08 10° NNW 19:40:57 44° W 19:44:42 10° SSW
CZ-4C R/B 3.6 19:36:00 10° NNW 19:42:22 33° NE 19:43:52 31° ENE
ARGOS Delta rocket 3.7 19:38:13 10° N 19:43:01 85° W 19:47:32 10° SSW
SeaSat 1 2.4 19:47:21 49° ESE 19:48:27 64° ENE 19:53:21 10° NNW
Cosmos 2263 Rocket 2.1 19:44:17 10° S 19:49:42 57° ESE 19:51:05 44° ENE
USA 215 3.3 19:56:01 22° NE 20:00:32 74° NW 20:07:02 10° SW
Envisat 3.3 19:58:44 10° S 20:03:46 66° WSW 20:08:50 10° NNW
Meteor 1-4 Rocket 4.0 20:03:10 10° SW 20:06:25 36° WNW 20:08:06 22° NNW
Okean 2 Rocket 4.5 20:06:33 10° SSW 20:10:37 37° WNW 20:14:44 10° N
Meteor 2-4 Rocket 3.9 20:09:41 10° NNW 20:15:26 72° W 20:18:20 29° S
Meteor 1-5 Rocket 4.3 20:09:39 10° S 20:15:30 84° W 20:21:31 10° N
USA 267 4.1 20:32:55 37° NNE 20:32:55 37° NNE 20:38:07 10° NNW
Cosmos 1943 3.8 20:36:47 10° NNW 20:41:12 53° NW 20:41:12 53° NW
COSMOS 2455 4.2 20:46:49 10° WSW 20:52:18 36° NW 20:54:56 25° N
Resurs 01 Rocket 4.3 21:07:01 16° WNW 21:07:01 16° WNW 21:08:31 10° NW
CZ-4C R/B 3.8 21:24:04 10° NW 21:29:06 45° WNW 21:29:06 45° WNW
